map of XLS home
Great Circle Mapper logo
XLS - Airport
Location
City:  Saint-Louis, Saint-Louis, Senegal
Name:Saint-Louis Airport
ICAO / IATA:GOSS / XLS

Details
Type:Airport (Aerodrome, Airfield)
Use:Public/Civil
Latitude:16°03'03"N (16.050761)
Longitude:16°27'47"W (-16.463171)
Datum:WGS 1984
Elevation:9 ft (3 m)
Variation:6.91°W (WMM2015 magnetic declination)
0.11° annual change
Runways:2
Longest:6230 × 100 ft (1899 × 30.5 m), paved

Time
Time Zone:UTC+0
Local Time:

Weather
METAR:GOSS 032100Z 34006KT 280V360 CAVOK 28/26 Q1013
TAF:GOSS 031730Z 0318/0418 31008KT 9999 SCT010= TAF GOGS 031730Z 0318/0418 31007KT 9999 SCT013
TEMPO 0320/0402 5000 TSRA BKN013 FEW020CB

Related Locations
Nearby:
Farthest:OLJ: 12229 mi / 19681 km
Olpoi [North West Santo], Espíritu Santo Island, SAM, VU

Find:

   beyond  
but within

Other Information
Maps:
NOTAMs:
Links:
Sources:

  
flag of Senegal   

Sectional Chart

Flight Planning
at skyvector.com

Satellite Image

Google Maps Satellite view

 

Copyright © 2004-2015 Karl L. Swartz. All rights reserved.
The Great Circle Mapper name and logo are trademarks of the Great Circle Mapper.
All other trademarks mentioned herein belong to their respective owners.
Please see credits for attibutions and further copyright information.

  Follow gcmap on Facebook Follow gcmap on Twitter Follow gcmap on Google+

hCard Microformat

Geo Microformat